Content
SEND FEEDBACK

Daily
Averages
Monthly
Summary
United States of America

BRANTLEY, ALABAMA


Home > North America > United States > Alabama
Elevation: 281 feet     Latitude: 31 35N     Longitude: 086 16W

WEATHER
 
SELECT A DAY
Number of Records: 107,290;   Date Range: 1/3/95 - 7/28/14
 
SHARE

PRINT THIS DATA

[ ← Previous Day ]
WEATHER ALMANAC - JANUARY 23, 2013
[ Next Day → ]
[ °C ]   °F
Weather ElementAverageHighLow
Temperature51.6 °F66 °F (2:56 pm)35.1 °F (2:56 am)
Dewpoint36.7 °F46 °F (11:56 pm)28.9 °F (2:56 am)
Humidity59.8 %82 % (1:56 am)34 % (10:56 am)
Barometer30.34 in30.43 in (8:56 am)30.28 in (5:56 pm)
Wind Speed2.7 mph6.9 mph (1:56 pm)
Weather ElementAverage
Visibility8.9 mi
Wind DirectionSE (129.6 °)

Weather ElementTotal
Precipitation---
Heating Degree Days14.5 (Base 65)
Growing Degree Days0.5 (Base 50)
Averaged from 23 records on January 23, 2013
WEATHER CONDITIONS BREAKOUT
WIND DIRECTION BREAKOUT
WEATHER BY HOUR - JANUARY 23, 2013
[ °C ]   °F
Local TimeTemperatureDewpointHumidityBarometerVisibilityWind DirectionWind SpeedGust SpeedPrecipitationEventsConditions
1:56 AM36.0 °F30.9 °F82 %30.32 in10.0 miCalmClear
2:56 AM35.1 °F28.9 °F78 %30.34 in10.0 miCalmClear
3:56 AM35.1 °F30.0 °F82 %30.34 in10.0 miCalmClear
4:56 AM35.1 °F28.9 °F78 %30.36 in10.0 miCalmScattered Clouds
5:56 AM39.0 °F30.9 °F73 %30.38 in10.0 miCalmOvercast
6:56 AM39.0 °F30.9 °F73 %30.38 in10.0 miSE (140°)3.5 mphOvercast
7:56 AM42.1 °F32.0 °F67 %30.40 in10.0 miESE (120°)3.5 mphOvercast
8:56 AM48.0 °F30.9 °F52 %30.43 in10.0 miESE (110°)5.8 mphScattered Clouds
9:56 AM53.1 °F28.9 °F40 %30.42 in10.0 miVariable3.5 mphOvercast
10:56 AM57.0 °F28.9 °F34 %30.40 in10.0 miSSE (150°)3.5 mphMostly Cloudy
11:56 AM62.1 °F34.0 °F35 %30.37 in10.0 miNNW (340°)5.8 mphMostly Cloudy
12:56 PM63.0 °F35.1 °F35 %30.33 in10.0 miCalmOvercast
1:56 PM64.9 °F37.9 °F37 %30.31 in10.0 miWNW (300°)6.9 mphMostly Cloudy
2:56 PM66.0 °F39.9 °F38 %30.30 in10.0 miWest (280°)5.8 mphMostly Cloudy
3:56 PM66.0 °F41.0 °F40 %30.30 in10.0 miNW (310°)5.8 mphPartly Cloudy
4:56 PM62.1 °F43.0 °F50 %30.29 in10.0 miCalmScattered Clouds
5:56 PM55.0 °F43.0 °F64 %30.28 in10.0 miCalmScattered Clouds
6:56 PM57.0 °F44.1 °F62 %30.29 in5.0 miSSW (210°)3.5 mphHaze
7:56 PM57.0 °F45.0 °F64 %30.29 in5.0 miCalmHaze
8:56 PM55.0 °F45.0 °F69 %30.30 in7.0 miSW (230°)4.6 mphClear
9:56 PM54.0 °F45.0 °F72 %30.30 in6.0 miWest (260°)3.5 mphHaze
10:56 PM53.1 °F45.0 °F74 %30.29 in6.0 miWest (260°)3.5 mphHaze
11:56 PM53.1 °F46.0 °F77 %30.29 in6.0 miWest (270°)3.5 mphHaze
Hourly data recorded from K79J, located miles away from Brantley, Alabama







STORIES FROM OUR PARTNERS